TimePDT,TemperatureF,Dew PointF,Humidity,Sea Level PressureIn,VisibilityMPH,Wind Direction,Wind SpeedMPH,Gust SpeedMPH,PrecipitationIn,Events,Conditions,WindDirDegrees,DateUTC
12:54 AM,-9999,-9999,N/A,29.94,-9999.0,NE,3.5,-,N/A,,Clear,50,2013-03-25 07:54:00
1:54 AM,-9999,-9999,N/A,29.94,-9999.0,Calm,Calm,-,N/A,,Clear,0,2013-03-25 08:54:00
2:54 AM,-9999,-9999,N/A,29.94,-9999.0,Calm,Calm,-,N/A,,Clear,0,2013-03-25 09:54:00
3:54 AM,-9999,-9999,N/A,29.94,-9999.0,Calm,Calm,-,N/A,,Clear,0,2013-03-25 10:54:00
4:54 AM,-9999,-9999,N/A,29.94,-9999.0,NNE,3.5,-,N/A,,Clear,20,2013-03-25 11:54:00
5:54 AM,49.3,41.4,74,29.94,7.0,Calm,Calm,-,N/A,,Scattered Clouds,0,2013-03-25 12:54:00
6:54 AM,47.7,41.4,79,29.96,7.0,Calm,Calm,-,N/A,,Scattered Clouds,0,2013-03-25 13:54:00
7:54 AM,50.5,42.4,74,29.97,7.0,NNE,4.6,-,N/A,,Scattered Clouds,20,2013-03-25 14:54:00
8:54 AM,54.1,46.2,75,29.98,7.0,Calm,Calm,-,N/A,,Scattered Clouds,0,2013-03-25 15:54:00
9:54 AM,60.3,51.8,74,29.99,7.0,South,4.6,-,N/A,,Scattered Clouds,170,2013-03-25 16:54:00
10:54 AM,61.2,52.7,74,29.99,7.0,South,11.5,-,N/A,,Mostly Cloudy,190,2013-03-25 17:54:00
11:08 AM,60.8,53.6,77,29.99,3.0,South,11.5,-,N/A,,Mostly Cloudy,170,2013-03-25 18:08:00
11:40 AM,59.0,55.4,88,29.99,1.0,South,12.7,-,N/A,,Overcast,180,2013-03-25 18:40:00
11:54 AM,59.7,54.7,83,29.99,1.0,South,12.7,-,N/A,,Overcast,190,2013-03-25 18:54:00
12:54 PM,59.5,53.4,80,29.98,2.5,SSW,10.4,-,N/A,,Overcast,200,2013-03-25 19:54:00
1:54 PM,61.9,55.0,78,29.96,3.0,SW,9.2,-,N/A,,Haze,220,2013-03-25 20:54:00
2:23 PM,62.6,55.4,77,29.94,3.0,WSW,8.1,-,N/A,,Haze,240,2013-03-25 21:23:00
2:54 PM,61.9,55.0,78,29.94,3.0,WSW,8.1,-,N/A,,Haze,240,2013-03-25 21:54:00
3:54 PM,65.8,56.8,73,29.93,4.0,West,8.1,-,N/A,,Haze,260,2013-03-25 22:54:00
4:54 PM,62.1,55.4,79,29.92,4.0,West,8.1,-,N/A,,Haze,260,2013-03-25 23:54:00
5:54 PM,60.4,54.9,82,29.92,4.0,West,10.4,-,N/A,,Haze,270,2013-03-26 00:54:00
6:07 PM,60.8,55.4,82,29.91,4.0,West,8.1,-,N/A,,Haze,280,2013-03-26 01:07:00
6:54 PM,59.7,53.8,81,29.93,4.0,West,8.1,-,N/A,,Haze,270,2013-03-26 01:54:00
7:54 PM,57.6,53.1,85,29.93,4.0,Calm,Calm,-,N/A,,Mostly Cloudy,0,2013-03-26 02:54:00
8:54 PM,55.8,51.1,84,29.94,4.0,Calm,Calm,-,N/A,,Mostly Cloudy,0,2013-03-26 03:54:00
9:54 PM,56.1,51.6,85,29.95,4.0,NNE,4.6,-,N/A,,Scattered Clouds,20,2013-03-26 04:54:00
11:54 PM,55.4,51.8,88,29.95,4.0,Calm,Calm,-,N/A,,Clear,0,2013-03-26 06:54:00